Weather History for Tampa, FL

Change the Weather History Date:

Monday, August 12, 2013

  Actual Average Record
Temperature  
Mean Temperature 88 °F 83 °F  
Max Temperature 95 °F 90 °F 96 °F (1972)
Min Temperature 80 °F 76 °F 69 °F (1931)
Degree Days  
Heating Degree Days 0 0  
Month to date heating degree days 0 0  
Since 1 June heating degree days 0 0  
Since 1 July heating degree days 0 0  
Cooling Degree Days 23 18  
Month to date cooling degree days 236 216  
Year to date cooling degree days 2283 2167  
Since 1 June cooling degree days 1308 1290  
Growing Degree Days 36 (Base 50)    
Moisture  
Dew Point 75 °F    
Average Humidity 69    
Maximum Humidity 85    
Minimum Humidity 52    
Precipitation  
Precipitation 0.00 in 0.26 in 4.92 in (1949)
Month to date precipitation 3.56 2.96  
Year to date precipitation 34.17 28.91  
Sea Level Pressure  
Sea Level Pressure 30.09 in    
Wind  
Wind Speed 4 mph (WSW)    
Max Wind Speed 12 mph    
Max Gust Speed 18 mph    
Visibility 10 miles    
Events      
T = Trace of Precipitation, MM = Missing Value Source: NWS Daily Summary

Daily Weather History Graph

Daily Weather History Graph

Search for Another Location

Airport:

Trip Planner

Search our weather history database for the weather conditions in past years. The results will help you decide how hot, cold, wet, or windy it might be!

Date:

Astronomy

Aug. 12, 2013 Rise Set
Actual Time 6:58 AM EDT 8:10 PM EDT
Civil Twilight 6:34 AM EDT 8:35 PM EDT
Nautical Twilight 6:04 AM EDT 9:04 PM EDT
Astronomical Twilight 5:34 AM EDT 9:35 PM EDT
Moon 12:12 PM EDT (8/12) 11:40 PM EDT (8/12)
Length of Visible Light 14h 01m
Length of Day
13h 12m
Waxing Crescent, 31% of the Moon is Illuminated
Aug 12
Waxing Crescent
Aug 14
First Quarter
Aug 20
Full
Aug 28
Last Quarter
Sep 5
New

Hourly Weather History & Observations

Time (EDT) Temp. Heat Index Dew Point Humidity Pressure Visibility Wind Dir Wind Speed Gust Speed Precip Events Conditions
12:53 AM 84.9 °F 92.1 °F 73.9 °F 69% 30.14 in 10.0 mi Calm Calm - N/A   Scattered Clouds
1:53 AM 82.9 °F 89.4 °F 73.9 °F 74% 30.14 in 10.0 mi Calm Calm - N/A   Partly Cloudy
2:53 AM 82.0 °F 88.6 °F 75.0 °F 79% 30.12 in 10.0 mi SSE 3.5 mph - N/A   Partly Cloudy
3:53 AM 81.0 °F 86.2 °F 73.9 °F 79% 30.09 in 10.0 mi Calm Calm - N/A   Clear
4:53 AM 81.0 °F 86.2 °F 73.9 °F 79% 30.09 in 10.0 mi Calm Calm - N/A   Clear
5:53 AM 80.1 °F 85.1 °F 75.0 °F 85% 30.10 in 10.0 mi Calm Calm - N/A   Partly Cloudy
6:53 AM 80.1 °F 84.5 °F 73.9 °F 81% 30.12 in 10.0 mi Calm Calm - N/A   Scattered Clouds
7:53 AM 81.0 °F 86.7 °F 75.0 °F 82% 30.12 in 8.0 mi Calm Calm - N/A   Partly Cloudy
8:53 AM 82.0 °F 88.6 °F 75.0 °F 79% 30.13 in 9.0 mi SE 4.6 mph - N/A   Partly Cloudy
9:53 AM 84.0 °F 92.6 °F 75.9 °F 76% 30.13 in 10.0 mi Variable 4.6 mph - N/A   Scattered Clouds
10:53 AM 84.9 °F 94.1 °F 75.9 °F 74% 30.12 in 10.0 mi SW 5.8 mph - N/A   Scattered Clouds
11:53 AM 87.1 °F 98.8 °F 77.0 °F 72% 30.11 in 10.0 mi SSW 4.6 mph - N/A   Scattered Clouds
12:53 PM 87.1 °F 99.8 °F 78.1 °F 74% 30.10 in 10.0 mi SSW 6.9 mph - N/A   Scattered Clouds
1:53 PM 89.1 °F 101.4 °F 77.0 °F 67% 30.08 in 10.0 mi SW 6.9 mph - N/A   Mostly Cloudy
2:53 PM 91.0 °F 102.9 °F 75.9 °F 61% 30.06 in 10.0 mi WSW 5.8 mph - N/A   Mostly Cloudy
3:53 PM 90.0 °F 100.2 °F 75.0 °F 61% 30.04 in 10.0 mi SW 6.9 mph - N/A   Mostly Cloudy
4:53 PM 93.0 °F 101.9 °F 73.0 °F 52% 30.03 in 10.0 mi Variable 3.5 mph - N/A   Mostly Cloudy
5:53 PM 90.0 °F 102.5 °F 77.0 °F 65% 30.02 in 10.0 mi West 11.5 mph - N/A   Mostly Cloudy
6:53 PM 89.1 °F 101.4 °F 77.0 °F 67% 30.02 in 10.0 mi WNW 6.9 mph - N/A   Mostly Cloudy
7:53 PM 88.0 °F 101.3 °F 78.1 °F 72% 30.02 in 10.0 mi West 6.9 mph 18.4 mph N/A   Mostly Cloudy
8:53 PM 87.1 °F 97.3 °F 75.9 °F 69% 30.04 in 10.0 mi NNW 4.6 mph - N/A   Scattered Clouds
9:53 PM 86.0 °F 98.3 °F 78.1 °F 77% 30.06 in 10.0 mi NNW 5.8 mph - N/A   Mostly Cloudy
10:53 PM 86.0 °F 96.9 °F 77.0 °F 74% 30.08 in 10.0 mi NNE 5.8 mph - N/A   Partly Cloudy
11:53 PM 84.9 °F 92.1 °F 73.9 °F 69% 30.07 in 10.0 mi ESE 3.5 mph - N/A   Partly Cloudy